Regional Weather Roundup
Issued by NWS

Home | Current Version | Previous Version | Text Only | Print | Product List | Glossary Off
Versions: 1 2 3 4 5 6 7 8 9 10 11 12 13 14 15 16 17 18 19 20 21 22 23 24 25 26 27

000
ASUS45 KSLC 282010
RWRUT

UTAH REGIONAL WEATHER ROUNDUP
NATIONAL WEATHER SERVICE SALT LAKE CITY UT
200 PM MDT THU APR 28 2016

UTZ001>011-023>025-282100-

NORTHERN UTAH

CITY           SKY/WX    TMP DP  RH WIND       PRES   REMARKS
BRIGHAM CITY   PTSUNNY   56  29  34 E14G23    29.76S
HILL AFB       PTSUNNY   46  33  62 E26G36    29.76S
LOGAN          PTSUNNY   56  32  40 E22G31    29.77S
OGDEN          LGT RAIN  48  36  63 E17       29.76S
PROVO AIRPORT  PTSUNNY   55  39  54 NW14      29.70F
SALT LAKE CITY CLOUDY    54  35  48 VRB5      29.73S
VERNAL         CLOUDY    45  37  73 N13       29.80F
WENDOVER       CLOUDY    50  36  57 S6        29.79R
HEBER CITY     CLOUDY    46  36  66 N16G23    29.75S

$$

UTZ012>022-026-027-282100-

SOUTHERN/CENTRAL UTAH

CITY           SKY/WX    TMP DP  RH WIND       PRES   REMARKS
BLANDING       PTSUNNY   50  33  52 S8        29.81S
BRYCE CANYON   CLOUDY    41  35  79 SE8       29.74F
CEDAR CITY     CLOUDY    52  33  48 VRB5      29.68S
DELTA          PTSUNNY   52  41  66 W10       29.70S
HANKSVILLE     PTSUNNY   50  41  71 CALM      29.75F
MILFORD        PTSUNNY   50  39  66 NW14      29.70S
MOAB/CYNLANDS  LGT RAIN  46  39  76 NW15      29.74R
PRICE          CLOUDY    44  38  79 E13       29.76S
ST GEORGE      CLOUDY    61  37  41 NW8       29.71S
KANAB          CLOUDY    46  43  87 NE3       29.77

$$

REGIONAL REPORTS     COLORADO/ARIZONA

CITY           SKY/WX    TMP DP  RH WIND       PRES   REMARKS
CRAIG, CO      CLOUDY    44  38  79 VRB3      29.81S
GRAND JUNCTION CLOUDY    48  41  76 N9        29.74F
RIFLE          LGT RAIN  53  40  61 MISG      29.73F
MONTROSE       CLOUDY    58  27  30 VRB6G20   29.72F
CORTEZ         CLOUDY    55  24  30 S16G31    29.75S
PAGE, AZ       CLOUDY    53  39  59 N5        29.71S
GRAND CANYON   CLOUDY    38  34  85 S9        29.78S WCI  31
KINGMAN        CLOUDY    51  42  71 S12       29.75F
FLAGSTAFF      MOSUNNY   43  25  49 W12G29    29.77R

$$

REGIONAL REPORTS    NEVADA/IDAHO/WYOMING

CITY           SKY/WX    TMP DP  RH WIND       PRES   REMARKS
LAS VEGAS, NV  CLOUDY    65  44  46 E7        29.65S
ELY            CLOUDY    42  37  82 N26       29.77R
ELKO           CLOUDY    54  33  45 NE18      29.82S
POCATELLO, ID  MOSUNNY   59  31  34 N9        29.79S
BURLEY         CLOUDY    55  35  47 VRB7      29.80S
EVANSTON, WY   CLOUDY    36  28  73 E23G32    29.83R WCI  24
ROCK SPRINGS   LGT SNOW  33  28  81 E23G31    29.88R WCI  21
KEMMERER       CLOUDY    36  30  80 E21G26    29.87S WCI  24

$$




USA.gov is the U.S. government's official web portal to all federal, state and local government web resources and services.